Oakland, CA

6:08 PM PDT on June 19, 2018 (GMT -0700)
Metro Oakland International

Weather History for KOAK - November, 2017

Change the Weather History Date:

Tuesday, November 21, 2017

  Actual Average Record
Temperature  
Mean Temperature 60 °F 53 °F  
Max Temperature 65 °F 62 °F 73 °F (2015)
Min Temperature 54 °F 44 °F 38 °F (1975)
Degree Days  
Heating Degree Days 5 12  
Month to date heating degree days 188 203  
Since 1 July heating degree days 381 555  
Cooling Degree Days 0 0  
Month to date cooling degree days 0 0  
Year to date cooling degree days 312 137  
Growing Degree Days 9 (Base 50)    
Moisture  
Dew Point 54 °F    
Average Humidity 84    
Maximum Humidity 100    
Minimum Humidity 67    
Precipitation  
Precipitation 0.00 in 0.10 in 1.48 in (1977)
Month to date precipitation 2.62 1.71  
Year to date precipitation 22.87 16.41  
Sea Level Pressure  
Sea Level Pressure 30.14 in    
Wind  
Wind Speed 6 mph (SSE)    
Max Wind Speed 13 mph    
Max Gust Speed 16 mph    
Visibility 9 miles    
Events Fog    
T = Trace of Precipitation, MM = Missing Value Source: NWS Daily Summary

Daily Weather History Graph

Daily Weather History Graph

Search for Another Location

Airport or City:

Astronomy

Nov. 21, 2017 Rise Set
Actual Time 6:55 AM PST 4:53 PM PST
Civil Twilight 6:27 AM PST 5:22 PM PST
Nautical Twilight 5:55 AM PST 5:54 PM PST
Astronomical Twilight 5:24 AM PST 6:25 PM PST
Moon 9:32 AM PST (11/21) 7:40 PM PST (11/21)
Length of Visible Light 10h 54m
Length of Day
9h 58m
Waxing Crescent, 10% of the Moon is Illuminated
Nov 21
Waxing Crescent
Nov 26
First Quarter
Dec 3
Full
Dec 9
Last Quarter
Dec 17
New

Hourly Weather History & Observations

Time (PST) Temp. Dew Point Humidity Pressure Visibility Wind Dir Wind Speed Gust Speed Precip Events Conditions
12:53 AM 55.9 °F 54.0 °F 93% 30.15 in 5.0 mi Calm Calm - N/A   Partly Cloudy
1:53 AM 57.0 °F 52.0 °F 83% 30.14 in 6.0 mi East 10.4 mph - N/A   Partly Cloudy
2:53 AM 57.0 °F 52.0 °F 83% 30.14 in 7.0 mi East 10.4 mph - N/A   Overcast
3:53 AM 55.0 °F 51.1 °F 86% 30.13 in 9.0 mi East 8.1 mph - N/A   Scattered Clouds
4:53 AM 55.0 °F 51.1 °F 86% 30.14 in 9.0 mi East 10.4 mph - N/A   Partly Cloudy
5:53 AM 54.0 °F 51.1 °F 90% 30.15 in 10.0 mi East 9.2 mph - N/A   Clear
6:53 AM 54.0 °F 51.1 °F 90% 30.17 in 7.0 mi ENE 9.2 mph - N/A   Overcast
7:53 AM 54.0 °F 51.1 °F 90% 30.17 in 10.0 mi East 6.9 mph - N/A   Mostly Cloudy
8:53 AM 59.0 °F 52.0 °F 78% 30.18 in 10.0 mi East 8.1 mph - N/A   Mostly Cloudy
9:53 AM 61.0 °F 52.0 °F 72% 30.18 in 10.0 mi SE 5.8 mph - N/A   Mostly Cloudy
10:53 AM 60.1 °F 55.0 °F 83% 30.18 in 10.0 mi SSW 6.9 mph - N/A   Mostly Cloudy
11:53 AM 61.0 °F 55.0 °F 81% 30.15 in 10.0 mi SW 6.9 mph - N/A   Partly Cloudy
12:53 PM 62.1 °F 55.9 °F 80% 30.12 in 10.0 mi SW 6.9 mph - N/A   Scattered Clouds
1:53 PM 63.0 °F 54.0 °F 72% 30.10 in 10.0 mi West 5.8 mph - N/A   Mostly Cloudy
2:53 PM 64.0 °F 54.0 °F 70% 30.08 in 10.0 mi West 6.9 mph - N/A   Mostly Cloudy
3:53 PM 64.0 °F 55.9 °F 75% 30.08 in 10.0 mi West 5.8 mph - N/A   Scattered Clouds
4:53 PM 62.1 °F 55.9 °F 80% 30.08 in 10.0 mi NW 5.8 mph - N/A   Mostly Cloudy
5:53 PM 60.1 °F 57.0 °F 90% 30.10 in 10.0 mi ENE 3.5 mph - N/A   Scattered Clouds
6:53 PM 60.1 °F 55.9 °F 86% 30.12 in 10.0 mi South 4.6 mph - N/A   Partly Cloudy
7:53 PM 57.9 °F 57.0 °F 97% 30.14 in 10.0 mi WNW 5.8 mph - N/A   Partly Cloudy
8:53 PM 55.9 °F 55.0 °F 97% 30.14 in 10.0 mi Calm Calm - N/A   Partly Cloudy
9:53 PM 57.9 °F 55.9 °F 93% 30.15 in 10.0 mi SSW 4.6 mph - N/A   Partly Cloudy
10:53 PM 57.9 °F 57.0 °F 97% 30.16 in 10.0 mi WNW 5.8 mph - N/A   Partly Cloudy
11:53 PM 55.0 °F 54.0 °F 96% 30.15 in 10.0 mi Calm Calm - N/A Fog Shallow Fog